Home > Weather > Esfahãn > Past weeks

Flag for Iran Weather for the Past 2 Weeks in Esfahãn, Iran

Now
25 °F

Clear.


Feels Like: 19 °F
Forecast: 22 / 58 °F
Wind: 5 mph from West

Location: Esfahan

Current Time: Feb 14, 2016 at 4:24:13 AM

Latest Report: Feb 14, 2016 at 3:30 AM


Visibility: 10 mi

Pressure: 30.15 "Hg (24.68 "Hg at 1576m altitude)

Humidity: 46%

Dew point: 7 °F

Location of EsfahãnLocation

Historic Weather in Esfahãn — Graph

°F

Esfahãn Temperature Yesterday

Maximum temperature yesterday: 54 °F (at 2:30 PM)
Minimum temperature yesterday: 19 °F (at 5:00 AM)
Average temperature yesterday: 36 °F

High & Low Weather Summary for the Past Weeks

 TemperatureHumidityPressure
High63 °F (Feb 6, 3:00 PM)80% (Feb 4, 5:00 AM)30.48 "Hg (Feb 4, 5:00 AM)
Low12 °F (Jan 31, 5:30 AM)8% (Feb 6, 3:00 PM)29.86 "Hg (Feb 8, 1:30 PM)
Average36 °F40%30.15 "Hg
* Reported Jan 30 2:30 AM — Feb 14 3:00 AM, Esfahãn, Weather by CustomWeather, © 2016

Note: Actual official high and low records may vary slightly from our data, if they occured in-between our weather recording intervals... More about our weather records

Advertising

Esfahãn Weather History for the Previous 24 Hours

 ConditionsComfort  
Time TempWeatherWind HumidityBarometerVisibility
3:00 AM
Sun, Feb 14
27 °FClear.No wind39%30.15 "Hg10 mi
2:30 AM27 °FClear.7 mph39%30.15 "Hg10 mi
2:00 AM28 °FClear.5 mph37%30.15 "Hg10 mi
1:00 AM28 °FClear.5 mph40%30.15 "Hg10 mi
12:30 AM30 °FClear.No wind37%30.15 "Hg10 mi
12:00 AM32 °FClear.7 mph37%30.15 "Hg10 mi
11:30 PM
Sat, Feb 13
34 °FClear.7 mph35%30.15 "Hg10 mi
11:00 PM34 °FClear.5 mph35%30.15 "Hg10 mi
10:30 PM34 °FClear.7 mph32%30.15 "Hg10 mi
10:00 PM36 °FClear.7 mph32%30.15 "Hg10 mi
9:30 PM37 °FClear.7 mph30%30.15 "Hg10 mi
9:00 PM39 °FClear.7 mph30%30.15 "Hg10 mi
8:30 PM41 °FClear.5 mph31%30.12 "Hg10 mi
8:00 PM41 °FClear.7 mph31%30.12 "Hg10 mi
7:30 PM43 °FClear.7 mph31%30.12 "Hg10 mi
7:00 PM46 °FClear.7 mph29%30.12 "Hg10 mi
6:30 PM50 °FClear.5 mph30%30.12 "Hg10 mi
6:00 PM48 °FSunny.5 mph29%30.09 "Hg10 mi
5:30 PM50 °FSunny.No wind28%30.09 "Hg10 mi
5:00 PM52 °FSunny.No wind24%30.09 "Hg10 mi
4:30 PM54 °FSunny.No wind22%30.09 "Hg10 mi
4:00 PM54 °FSunny.No wind22%30.09 "Hg10 mi
3:30 PM54 °FSunny.5 mph22%30.09 "Hg10 mi
3:00 PM54 °FSunny.5 mph24%30.09 "Hg10 mi
2:30 PM54 °FSunny.5 mph24%30.09 "Hg10 mi
2:00 PM52 °FSunny.5 mph24%30.12 "Hg10 mi
1:30 PM52 °FSunny.7 mph26%30.12 "Hg10 mi
1:00 PM52 °FSunny.5 mph26%30.12 "Hg10 mi
12:30 PM50 °FSunny.5 mph30%30.15 "Hg10 mi
12:00 PM45 °FSunny.5 mph31%30.15 "Hg10 mi
11:30 AM45 °FSunny.5 mph31%30.18 "Hg10 mi
11:00 AM43 °FSunny.5 mph34%30.18 "Hg10 mi
10:30 AM37 °FSunny.7 mph38%30.21 "Hg10 mi
10:00 AM36 °FSunny.7 mph44%30.21 "Hg10 mi
9:30 AM34 °FSunny.7 mph44%30.18 "Hg10 mi
9:00 AM30 °FSunny.5 mph51%30.18 "Hg10 mi
8:30 AM27 °FSunny.No wind59%30.18 "Hg10 mi
8:00 AM23 °FSunny.No wind63%30.18 "Hg10 mi
7:30 AM21 °FSunny.7 mph63%30.18 "Hg10 mi
7:00 AM19 °FClear.7 mph68%30.15 "Hg10 mi
6:30 AM19 °FClear.7 mph68%30.15 "Hg10 mi
6:00 AM19 °FClear.9 mph68%30.12 "Hg10 mi
5:30 AM19 °FClear.9 mph68%30.12 "Hg10 mi
5:00 AM19 °FClear.7 mph63%30.12 "Hg10 mi
4:30 AM21 °FClear.7 mph63%30.12 "Hg10 mi
4:00 AM21 °FClear.5 mph63%30.12 "Hg10 mi
Weather by CustomWeather, © 2016

See weather overviewHow to use our weather pages